Location: Newark
(42.9858°N, 0.6717°E)
Time: 02:28:19
(UTC+00:00)

S-56A Canister/Altair - Pass Details

Date: 23 November 2019
Orbit: 633 x 2499 km, 38.9° (Epoch: 07 December)

Event Time Altitude Azimuth Distance (km) Brightness Sun altitude
Rises 13:04:27 0° 200° (SSW) 6,096 13.6 24.0°
Reaches altitude 10° 13:09:50 10° 188° (S) 4,935 13.3 23.6°
Maximum altitude 13:19:20 23° 143° (SE) 3,523 11.5 22.9°
Drops below altitude 10° 13:27:03 10° 97° (E) 3,935 11.0 22.3°
Sets 13:30:40 0° 84° (E) 4,627 11.2 22.0°
